This demonstration page uses our WeatherBlox Daily Observations layout. Learn more.

Left ArrowRight Arrow

38.20091, -84.87328

Hourly Observations for July 25, 2018

Temp ( °F °C ) Dew Point ( °F °C ) Humidity (%) Winds ( mph kmh ) Pressure ( in mb ) Visibility ( mi km ) Precip ( " mm )
12:53 am 00:53 Clear 68 20 66 18.9 93 93 Calm 29.96 1015 10 16 0.00 0.00
1:53 am 01:53 Clear 67 19.4 65 18.3 93 93 NW 3 6 29.96 1015 9 14 0.00 0.00
2:53 am 02:53 Clear 66 18.9 64 17.8 93 93 Calm 29.96 1014 9 14 0.00 0.00
3:53 am 03:53 Clear 66 18.9 64 17.8 93 93 Calm 29.95 1014 7 11 0.00 0.00
4:53 am 04:53 Clear 65 18.3 63 17.2 93 93 Calm 29.94 1014 7 11 0.00 0.00
5:53 am 05:53 Clear 65 18.3 63 17.2 93 93 Calm 29.94 1014 9 14 0.00 0.00
6:53 am 06:53 Sunny 64 17.8 62 16.7 93 93 Calm 29.96 1014 8 13 0.00 0.00
7:53 am 07:53 Sunny 67 19.4 64 17.8 91 91 Calm 29.96 1015 10 16 0.00 0.00
8:53 am 08:53 Sunny 74 23.3 68 20 82 82 NNW 5 7 29.98 1015 10 16 0.00 0.00
9:53 am 09:53 Sunny 77 25 67 19.4 71 71 N 6 9 29.99 1016 10 16 0.00 0.00
10:53 am 10:53 Sunny 80 26.7 65 18.3 60 60 NNW 6 9 29.98 1015 10 16 0.00 0.00
11:53 am 11:53 Sunny 81 27.2 65 18.3 58 58 NW 6 9 29.98 1015 10 16 0.00 0.00
12:53 pm 12:53 Sunny 84 28.9 60 15.6 44 44 VRB 5 7 29.98 1015 10 16 0.00 0.00
1:53 pm 13:53 Sunny 86 30 61 16.1 43 43 VRB 7 11 29.96 1015 10 16 0.00 0.00
2:53 pm 14:53 Sunny 87 30.6 62 16.7 43 43 NNW 10 17 29.96 1014 10 16 0.00 0.00
3:53 pm 15:53 Sunny 86 30 62 16.7 45 45 NW 9 15 29.94 1014 10 16 0.00 0.00
4:53 pm 16:53 Mostly Sunny 87 30.6 63 17.2 45 45 NNW 6 9 29.93 1014 10 16 0.00 0.00
5:53 pm 17:53 Sunny 86 30 62 16.7 45 45 NW 7 11 29.92 1013 10 16 0.00 0.00
6:53 pm 18:53 Sunny 86 30 63 17.2 46 46 NNW 8 13 29.92 1013 10 16 0.00 0.00
7:53 pm 19:53 Sunny 83 28.3 65 18.3 55 55 NW 3 6 29.93 1013 10 16 0.00 0.00
8:53 pm 20:53 Sunny 75 23.9 66 18.9 74 74 Calm 29.93 1014 10 16 0.00 0.00
9:53 pm 21:53 Clear 74 23.3 66 18.9 76 76 WSW 3 6 29.94 1014 10 16 0.00 0.00
10:53 pm 22:53 Clear 70 21.1 66 18.9 87 87 Calm 29.95 1014 10 16 0.00 0.00
11:53 pm 23:53 Clear 70 21.1 66 18.9 87 87 Calm 29.95 1014 10 16 0.00 0.00

Powered by AerisWeather